User: anonymous   Login
Location: Unspecified
(0.0000°N, 0.0000°E)
Time: 06:09:20
(UTC+00:00)
Language:

WGS F4 (USA 233) - Orbit

View from above orbital plane
View from above orbital plane
View from above satellite
View from above satellite

Ground track
Ground track

The orbit data is extracted from the following two-line orbital elements,

1 38070U 12003A   17290.93541463 0.00000000  00000-0  00000-0 0    01
2 38070   0.0160  91.7114 0005459 203.4264 156.5604  1.00270000    01
Epoch (UTC): 17 October 2017 22:26:59
Eccentricity: 0.0005459
inclination: 0.0160°
perigee height: 35764 km
apogee height: 35810 km
right ascension of ascending node: 91.7114°
argument of perigee: 203.4264°
revolutions per day: 1.00270000
mean anomaly at epoch: 156.5604°
orbit number at epoch: 0

The dashed part of the orbit path shows where the satellite is in the earth's shadow,  

DLR